{"data":{"norad_id":44231,"intl_designator":"2019-027A","name":"BEIDOU-2 G8 (C01)","alt_names":[],"object_type":"PAYLOAD","status":"ACTIVE","operator":null,"country":"PRC","launch_date":"2019-05-17","launch_site_code":"XICLF","launch_vehicle":null,"mission":null,"orbit_class":"UNKNOWN","rcs_meters":null,"size_class":null,"mass_kg":null,"dimensions":null,"purposes":["comms","nav"],"wikipedia_slug":null,"has_3d_model":false,"image_url":null,"decayed_at":null,"tle_current":{"epoch":"2026-09-19T21:04:50.176128Z","epoch_age_seconds":68107,"freshness":"FRESH","line1":"1 44231U 19027A   26262.87835852 -.00000251  00000+0  00000+0 0  9994","line2":"2 44231   1.8921  74.2779 0008963 278.9281 106.3369  1.00270663 27031","mean_motion":1.00270663,"eccentricity":0.0008963,"inclination_deg":1.8921,"raan_deg":74.2779,"arg_perigee_deg":278.9281,"mean_anomaly_deg":106.3369,"bstar":0,"rev_number":2703,"period_min":1436.1129735424,"perigee_km":35749.116970274,"apogee_km":35824.702032633,"semimajor_km":42165.046501453,"source":"CELESTRAK","updated_at":"2026-09-20T09:00:46.711867Z"}}}